TimeMST,TemperatureF,Dew PointF,Humidity,Sea Level PressureIn,VisibilityMPH,Wind Direction,Wind SpeedMPH,Gust SpeedMPH,PrecipitationIn,Events,Conditions,WindDirDegrees,DateUTC
12:57 AM,91.9,54.0,27,29.76,10.0,South,8.1,-,N/A,,Mostly Cloudy,180,2013-08-21 07:57:00
1:57 AM,91.0,55.9,30,29.75,10.0,SW,5.8,-,N/A,,Mostly Cloudy,220,2013-08-21 08:57:00
2:57 AM,89.1,57.9,35,29.75,10.0,Calm,Calm,-,N/A,,Mostly Cloudy,0,2013-08-21 09:57:00
3:57 AM,91.0,60.1,35,29.75,10.0,SE,6.9,-,N/A,,Mostly Cloudy,130,2013-08-21 10:57:00
4:57 AM,91.0,60.1,35,29.76,10.0,ESE,4.6,-,N/A,,Mostly Cloudy,110,2013-08-21 11:57:00
5:57 AM,89.1,60.1,38,29.77,10.0,NE,3.5,-,N/A,,Mostly Cloudy,40,2013-08-21 12:57:00
6:57 AM,91.9,59.0,33,29.78,10.0,ESE,8.1,-,N/A,,Mostly Cloudy,120,2013-08-21 13:57:00
7:57 AM,95.0,57.9,29,29.79,10.0,East,8.1,-,N/A,,Mostly Cloudy,90,2013-08-21 14:57:00
8:57 AM,98.1,55.9,24,29.80,10.0,ESE,3.5,-,N/A,,Scattered Clouds,110,2013-08-21 15:57:00
9:57 AM,100.9,57.0,23,29.81,10.0,SE,8.1,-,N/A,,Scattered Clouds,140,2013-08-21 16:57:00
10:57 AM,102.9,57.0,22,29.81,10.0,SSW,6.9,-,N/A,,Scattered Clouds,200,2013-08-21 17:57:00
11:57 AM,106.0,55.0,19,29.80,10.0,SSW,9.2,-,N/A,,Scattered Clouds,200,2013-08-21 18:57:00
12:57 PM,108.0,50.0,15,29.78,10.0,SE,9.2,16.1,N/A,,Scattered Clouds,130,2013-08-21 19:57:00
1:57 PM,109.0,50.0,14,29.76,10.0,Variable,4.6,-,N/A,,Scattered Clouds,0,2013-08-21 20:57:00
2:57 PM,109.9,50.0,14,29.73,10.0,Variable,3.5,-,N/A,,Scattered Clouds,0,2013-08-21 21:57:00
3:57 PM,109.0,50.0,14,29.70,10.0,Calm,Calm,-,N/A,,Scattered Clouds,0,2013-08-21 22:57:00
4:57 PM,109.9,48.9,13,29.70,10.0,SE,3.5,-,N/A,,Mostly Cloudy,140,2013-08-21 23:57:00
5:57 PM,106.0,61.0,23,29.70,10.0,SW,19.6,-,N/A,,Mostly Cloudy,230,2013-08-22 00:57:00
6:57 PM,100.9,61.0,27,29.73,10.0,SSW,15.0,-,N/A,,Mostly Cloudy,210,2013-08-22 01:57:00
7:57 PM,97.0,66.0,36,29.74,10.0,SSW,9.2,-,N/A,,Mostly Cloudy,200,2013-08-22 02:57:00
8:57 PM,97.0,64.9,35,29.76,10.0,SE,6.9,-,N/A,,Mostly Cloudy,140,2013-08-22 03:57:00
9:57 PM,96.1,66.9,38,29.77,10.0,SSE,9.2,-,N/A,,Mostly Cloudy,150,2013-08-22 04:57:00
10:57 PM,93.0,68.0,44,29.77,10.0,SSE,9.2,-,N/A,,Mostly Cloudy,160,2013-08-22 05:57:00
11:57 PM,91.9,68.0,45,29.78,10.0,SSE,12.7,-,N/A,,Mostly Cloudy,160,2013-08-22 06:57:00